Lapse_Rate
6.9 6.9 6.8 6.7 6.5 6.6 6.7 6.9 7.1 6.9 6.7 6.6 6.4 6.4 6.3 6.3 6.3 6.4 6.5 6.5 6.5 6.5 6.6 6.7 6.9 6.9 7.0 7.0 6.9 6.9 6.7 6.6 6.6 6.5 6.4 6.4 6.4 6.5 6.6 6.5 6.5 6.5 6.7
6.9 6.9 6.8 6.7 6.7 6.7 6.7 6.9 7.1 6.9 6.7 6.6 6.4 6.3 6.2 6.2 6.3 6.3 6.4 6.4 6.5 6.5 6.5 6.5 6.7 6.7 6.8 6.9 6.7 6.5 6.4 6.7 6.6 6.4 6.4 6.4 6.3 6.3 6.5 6.6 6.6 6.8 6.8
6.9 7.0 6.8 6.6 6.5 6.7 6.8 6.9 7.1 7.0 6.8 6.7 6.5 6.4 6.4 6.4 6.4 6.4 6.4 6.4 6.4 6.4 6.4 6.4 6.5 6.5 6.7 6.7 6.7 6.4 6.3 6.6 6.4 6.3 6.3 6.4 6.4 6.4 6.4 6.6 6.8 6.8 6.8
7.1 7.0 7.0 6.8 6.6 6.6 6.7 6.9 7.1 7.0 6.9 6.6 6.6 6.5 6.4 6.4 6.5 6.5 6.4 6.5 6.4 6.4 6.4 6.4 6.3 6.4 6.5 6.3 6.4 6.3 6.3 6.5 6.4 6.2 6.1 6.0 6.1 6.2 6.5 6.7 6.7 6.7 6.7
7.5 7.2 7.1 6.8 6.5 6.5 6.5 6.6 6.7 6.8 6.7 6.7 6.6 6.4 6.3 6.4 6.5 6.6 6.5 6.6 6.6 6.5 6.5 6.3 6.3 6.2 6.2 6.1 6.1 6.0 6.1 6.2 6.0 6.1 6.1 6.0 6.0 6.1 6.2 6.3 6.5 6.6 6.6
7.9 7.5 7.3 6.9 6.6 6.3 6.4 6.6 6.6 6.6 6.4 6.3 6.3 6.1 6.0 6.1 6.4 6.6 6.6 6.6 6.6 6.6 6.5 6.4 6.3 6.0 6.1 6.0 6.0 6.0 6.0 5.9 5.8 5.8 5.8 5.8 5.9 6.0 6.2 6.3 6.3 6.4 6.5
7.6 7.5 7.3 7.3 7.0 6.7 6.8 6.7 6.6 6.5 6.3 6.3 6.0 6.0 6.1 6.3 6.3 6.5 6.6 6.6 6.7 6.6 6.6 6.5 6.4 6.1 6.0 5.9 5.9 5.9 5.9 5.9 5.9 6.0 6.0 5.9 5.9 5.8 5.9 6.1 6.2 6.3 6.5
7.5 7.6 7.7 7.5 7.4 7.0 6.8 6.8 6.7 6.6 6.6 6.4 6.3 6.2 6.1 6.3 6.4 6.6 6.6 6.7 6.7 6.7 6.6 6.5 6.4 6.1 6.0 5.8 5.7 5.8 5.8 5.9 5.9 5.8 5.7 5.8 5.9 5.9 5.9 6.0 6.1 6.2 6.3
7.5 7.6 7.6 7.6 7.3 7.3 6.9 6.7 6.7 6.8 6.9 6.5 6.4 6.1 6.1 6.4 6.7 6.7 6.7 6.7 6.8 6.7 6.6 6.4 6.3 6.2 5.9 5.8 5.7 5.7 5.7 5.8 5.7 5.8 5.9 5.7 5.6 5.8 5.9 6.0 6.2 6.2 6.3
7.6 7.7 7.7 7.7 7.6 7.1 7.3 7.2 6.9 6.6 6.6 6.6 6.5 6.4 6.3 6.5 6.4 6.6 6.7 6.7 6.7 6.7 6.5 6.3 6.1 6.0 5.9 5.8 5.7 5.7 5.6 5.7 5.6 5.5 5.5 5.7 5.7 5.7 5.7 5.8 6.0 6.0 6.0
7.5 7.5 7.6 7.7 7.5 7.3 7.3 7.2 7.2 7.1 6.9 6.5 6.6 6.6 6.5 6.4 6.4 6.5 6.8 6.6 6.4 6.3 6.2 6.2 6.2 6.0 5.9 5.8 5.8 5.7 5.6 5.5 5.5 5.5 5.5 5.6 5.7 5.6 5.7 5.6 5.5 5.6 6.2
7.9 7.6 7.5 7.5 7.5 7.2 7.1 7.2 7.2 6.9 6.8 6.5 6.3 6.5 6.6 6.5 6.6 6.6 6.5 6.3 6.0 5.9 5.8 5.7 6.0 6.0 5.9 5.7 5.6 5.5 5.4 5.4 5.4 5.6 5.6 5.4 5.3 5.3 5.3 5.3 5.3 5.4 5.9
8.3 8.2 8.0 7.8 7.6 7.4 7.4 7.4 7.3 7.2 7.1 7.1 6.7 6.4 6.2 6.2 6.5 6.3 6.2 6.1 5.9 5.4 5.4 5.4 5.5 5.6 5.8 5.7 5.4 5.4 5.3 5.2 5.1 5.4 5.4 5.2 5.2 5.1 4.9 4.7 5.0 5.4 5.8
8.7 8.9 8.6 8.3 8.0 7.7 7.3 7.1 7.0 6.6 6.3 6.2 6.1 6.0 6.1 6.3 6.4 6.3 6.1 5.9 5.6 5.4 5.3 5.3 5.2 5.0 4.6 4.9 5.0 4.9 4.9 4.7 4.8 5.1 5.1 5.0 5.1 5.0 4.9 4.7 5.1 5.3 5.7
8.8 8.1 8.1 8.0 7.8 7.2 6.9 7.0 6.6 6.5 6.1 6.3 6.6 6.5 6.3 6.3 6.2 6.2 5.9 5.9 5.7 5.2 5.3 4.8 5.0 4.9 4.1 4.1 4.3 4.1 3.7 3.5 4.3 4.1 4.4 4.8 4.9 4.8 4.9 4.7 5.2 5.6 5.8
8.6 8.8 8.0 7.3 7.4 6.8 6.8 6.5 6.2 6.1 5.6 6.3 6.1 6.2 6.4 6.3 6.2 6.3 5.8 5.6 5.3 4.9 4.7 4.5 4.6 4.4 3.9 3.9 3.9 4.1 3.4 3.2 3.5 3.6 3.6 4.5 4.5 4.6 4.6 4.8 5.3 5.5 5.5
8.5 8.6 8.5 7.9 7.4 6.7 6.2 6.0 5.8 5.6 5.9 6.0 6.2 6.3 6.1 6.4 6.3 6.3 5.5 5.4 5.9 5.6 5.2 4.6 4.0 3.9 3.4 3.3 3.8 3.8 3.9 4.1 4.1 3.9 3.5 4.1 4.5 4.6 4.5 4.9 5.3 5.3 5.4
8.5 7.8 7.8 7.0 6.9 6.3 5.5 5.9 6.1 6.1 6.2 6.3 5.9 6.1 6.2 6.0 6.1 6.1 5.9 5.0 5.8 5.6 5.1 5.2 4.6 4.3 4.2 4.0 3.6 3.8 3.7 4.0 4.3 4.1 3.4 3.4 4.3 4.5 4.6 5.0 5.0 5.3 5.4
7.9 7.2 7.1 6.5 6.4 6.7 5.1 5.4 6.1 6.2 6.3 6.0 6.2 6.0 6.0 5.5 5.8 5.8 5.6 5.3 5.5 5.0 5.0 5.2 5.1 4.4 4.0 3.6 3.5 3.6 3.5 3.5 4.0 3.5 3.3 3.8 4.3 4.5 4.6 4.9 4.9 5.0 5.2
6.7 6.3 6.8 6.2 6.2 6.2 5.7 5.9 6.3 6.1 5.9 6.0 6.1 5.4 5.5 5.5 5.4 5.4 5.3 5.2 5.3 4.9 5.0 4.8 4.7 4.2 3.9 3.8 3.7 3.6 3.2 3.4 3.6 3.2 3.4 3.8 4.3 4.6 4.7 4.7 4.6 4.7 5.0
6.4 6.7 6.6 6.5 6.3 6.1 5.6 5.6 6.1 6.3 5.9 5.8 5.7 5.5 5.4 5.6 5.6 5.6 5.3 5.2 5.3 5.1 4.7 4.4 4.1 4.0 3.8 3.7 3.9 3.9 3.4 3.1 3.1 3.1 3.5 4.0 4.2 4.6 4.7 4.6 4.6 4.5 4.8
6.4 6.4 6.0 6.1 5.3 5.5 5.4 6.0 5.9 6.0 5.9 5.7 5.6 5.5 5.6 5.7 5.7 5.5 5.0 4.9 5.0 4.5 4.1 4.0 4.0 3.7 3.9 3.6 3.5 3.5 3.0 3.1 3.3 3.4 3.7 4.0 4.2 4.4 4.5 4.5 4.7 4.7 5.0
6.0 5.5 5.2 5.7 5.4 5.6 5.6 5.7 5.6 5.8 5.9 6.1 6.2 6.0 5.8 5.6 5.3 5.1 5.3 4.9 4.4 4.6 4.1 4.1 3.6 3.8 3.5 3.7 3.6 3.3 3.2 3.4 2.9 3.0 3.0 3.4 3.6 3.8 4.3 4.8 4.8 4.8 4.8
6.1 5.5 5.6 5.6 5.7 5.6 5.4 5.4 5.6 5.7 5.9 5.8 5.8 5.6 5.5 5.6 5.6 5.5 5.2 5.0 4.4 4.1 4.2 4.1 4.0 3.9 3.7 3.6 3.6 3.3 3.1 2.9 2.7 2.9 3.3 3.6 4.2 4.4 4.5 4.5 4.7 4.7 4.8
5.6 5.4 5.5 5.5 5.1 4.9 5.1 5.2 5.7 5.8 5.7 5.7 5.7 5.7 5.8 5.7 5.6 5.3 5.3 5.2 5.1 4.6 4.2 3.8 3.9 3.9 3.8 3.2 3.4 3.3 3.5 3.7 3.7 3.7 3.4 3.5 3.9 3.9 4.4 4.6 4.7 4.7 4.7
5.5 5.5 5.5 5.3 4.9 4.7 5.0 5.1 5.5 5.7 5.6 5.6 5.3 5.6 5.7 5.4 5.3 5.2 5.5 5.4 5.2 5.5 4.9 4.5 4.1 4.1 3.6 3.6 3.7 3.8 3.8 3.6 4.0 3.7 3.7 3.8 3.9 3.7 4.1 4.7 4.7 4.7 4.7
Wind_Speed
9 12 11 12 12 15 14 13 14 13 14 14 14 15 14 16 18 18 19 16 18 16 16 17 17 18 18 17 17 17 18 17 18 16 17 18 18 18 18 18 18 18 18
11 8 7 9 12 15 16 15 14 12 10 13 10 11 11 14 17 17 16 16 15 15 14 15 15 15 16 16 17 16 16 17 16 16 15 17 17 17 17 18 17 17 17
16 12 6 7 11 16 18 16 14 15 10 11 8 11 12 14 15 16 14 14 15 13 12 13 14 16 15 14 16 16 17 17 15 15 16 15 15 16 16 16 15 16 17
21 14 9 8 14 14 15 9 9 8 8 8 7 5 8 12 14 16 16 15 18 14 12 11 13 12 12 14 14 15 15 16 15 15 15 15 13 13 14 13 13 15 15
22 15 10 10 18 11 7 8 6 10 9 7 7 5 4 5 9 12 14 16 17 17 13 13 11 10 12 11 12 13 13 15 14 14 14 14 12 11 12 12 12 13 14
23 16 10 11 16 9 8 8 10 6 9 10 9 7 4 5 6 7 10 13 17 16 14 14 10 9 7 10 11 11 12 13 13 13 13 12 11 10 10 11 12 13 14
22 14 11 12 12 12 13 12 10 14 7 10 9 6 5 5 4 3 6 10 11 15 17 16 12 9 7 8 11 11 10 10 11 12 11 12 12 10 10 10 10 11 13
20 14 16 14 16 12 13 14 14 9 3 12 6 4 3 2 1 2 2 4 7 12 12 14 14 11 7 9 5 11 11 9 9 9 10 10 10 10 9 9 10 10 12
18 17 17 15 16 14 14 15 15 16 10 10 16 6 4 4 4 1 3 2 5 5 10 13 14 13 11 12 11 10 9 9 9 8 9 9 9 9 8 9 9 10 11
21 19 18 17 17 13 17 17 14 14 12 16 9 2 2 6 4 3 1 2 3 5 7 9 12 12 12 13 10 11 9 9 9 8 8 9 8 8 8 7 9 10 11
21 21 18 18 18 14 17 20 18 18 13 14 12 3 2 3 4 3 4 3 1 3 6 7 12 13 11 11 10 8 8 9 9 9 8 8 8 7 8 8 8 9 10
16 22 21 19 19 17 18 18 19 21 16 14 12 7 7 5 4 4 3 6 7 2 4 5 7 11 13 13 12 10 8 9 9 9 9 8 7 6 7 8 8 8 10
14 20 25 22 18 21 19 19 20 20 19 17 18 12 7 4 6 3 7 5 3 2 3 5 8 11 11 13 12 13 10 10 9 8 8 8 7 7 6 8 8 9 9
17 20 21 21 22 21 19 19 16 17 18 16 19 14 9 7 8 6 6 10 4 2 2 4 7 12 15 17 14 12 11 11 10 8 8 8 8 8 8 8 9 10 9
13 17 20 19 19 19 20 21 15 18 18 18 16 16 12 9 8 7 8 10 8 5 7 6 4 14 14 17 17 18 13 11 11 11 12 10 9 8 9 9 10 10 10
15 16 18 18 18 18 19 19 15 18 18 15 13 17 14 10 10 8 9 8 3 5 6 3 2 7 15 13 17 21 17 15 13 11 13 13 11 10 10 10 10 11 11
15 16 18 17 17 19 20 19 18 18 19 17 14 16 15 13 9 8 8 7 6 5 7 2 2 12 10 14 17 18 18 15 14 15 13 13 12 12 11 11 11 11 12
16 18 20 21 19 18 17 20 20 17 18 18 18 17 16 12 14 12 10 10 9 9 5 12 7 6 7 18 17 17 14 15 14 16 15 14 13 12 12 12 12 12 11
19 18 17 18 18 18 15 16 17 17 18 18 17 17 17 17 15 11 12 11 10 9 10 8 6 5 4 12 10 12 14 13 13 17 16 15 14 12 11 11 13 12 11
16 17 17 16 16 15 16 14 15 16 16 15 16 17 17 19 18 16 13 15 14 11 10 10 6 9 9 10 10 11 7 9 8 16 16 15 15 14 13 11 12 11 10
13 14 14 12 13 13 12 15 15 15 15 13 13 13 14 17 21 21 13 15 15 11 9 10 8 9 9 11 14 9 10 9 6 13 12 15 15 13 13 11 10 10 10
9 13 12 15 15 11 18 19 16 13 13 14 12 10 10 14 17 22 22 25 24 16 12 9 8 11 14 13 10 12 11 11 6 10 7 7 14 11 11 12 12 11 10
9 12 9 13 12 11 20 22 19 12 11 10 11 11 9 7 14 13 12 18 18 22 22 16 14 14 13 16 15 14 14 12 5 8 11 7 10 7 14 13 14 12 10
9 6 8 7 9 7 20 20 18 12 9 9 9 11 11 11 11 13 11 11 9 8 9 10 14 13 12 18 21 16 16 9 4 9 16 6 6 5 12 15 16 15 13
9 7 9 9 8 8 15 15 13 10 9 9 8 8 9 10 14 19 13 11 9 6 7 11 15 21 20 31 29 12 12 12 4 4 8 3 4 4 5 8 17 17 15
7 7 9 9 12 8 13 13 11 7 8 6 6 7 12 9 17 18 12 11 11 9 10 8 7 14 22 27 33 25 14 14 6 3 6 6 4 5 4 6 13 15 14
Wind_Direction
152 146 140 141 143 143 138 128 126 122 114 114 115 122 123 128 128 129 133 137 122 125 128 126 123 122 118 117 113 107 102 95 92 88 85 84 81 78 74 72 69 68 68
156 157 152 152 149 153 145 140 139 130 118 119 101 107 114 121 124 126 130 138 129 128 129 127 128 126 120 121 114 110 105 100 98 94 85 82 83 81 78 74 68 68 66
162 156 154 155 154 149 137 127 123 123 120 118 115 116 119 117 114 114 117 131 133 131 132 135 127 124 124 121 118 115 112 109 99 97 90 83 78 81 74 71 70 70 64
165 160 160 161 153 149 150 145 146 136 132 131 125 112 108 111 112 112 114 116 116 114 122 131 125 127 124 129 123 124 115 109 106 103 95 88 85 77 77 73 71 70 69
170 168 164 160 154 150 150 146 141 147 140 128 118 99 84 95 113 118 112 111 113 111 108 131 125 122 135 128 130 122 117 116 113 107 100 97 91 85 86 84 77 74 70
174 168 163 157 154 153 151 146 143 135 143 137 118 84 62 56 82 100 113 120 119 117 113 118 111 116 131 136 130 131 127 122 117 113 110 103 101 93 88 81 76 73 70
178 174 161 161 165 169 169 156 143 140 134 133 116 90 59 57 55 60 118 123 115 124 123 123 119 118 91 137 146 135 134 125 121 112 110 110 103 99 90 86 83 75 69
180 177 170 177 173 165 167 165 156 149 118 167 148 111 137 48 26 61 88 132 130 136 128 132 127 123 113 87 127 138 132 130 121 122 121 118 109 104 99 88 74 69 70
185 186 178 175 175 171 174 174 170 170 156 186 170 141 146 188 133 172 191 171 151 140 144 146 139 130 109 96 85 89 119 134 134 136 125 117 111 105 99 90 84 74 66
188 188 181 177 178 178 177 179 177 177 162 179 186 161 116 140 161 152 214 186 160 161 155 156 146 141 133 116 101 85 94 115 140 147 137 127 120 110 96 82 77 73 66
190 189 183 183 181 182 184 180 179 182 180 177 183 138 119 88 107 141 160 162 108 162 163 159 155 149 146 137 128 116 117 124 141 151 145 139 129 122 109 98 81 76 73
190 189 186 187 187 185 182 184 184 183 181 184 188 172 171 159 166 146 124 157 160 118 130 145 160 161 159 159 156 151 135 126 133 145 147 141 126 119 111 100 87 78 73
192 192 189 188 189 188 185 181 182 188 188 185 185 183 175 161 142 124 118 130 148 137 154 160 172 170 168 171 165 161 150 138 134 140 144 137 124 115 106 97 89 79 72
204 197 194 191 189 186 184 185 184 186 187 191 187 184 178 168 158 157 141 140 129 138 156 151 172 178 169 176 169 162 157 144 141 140 139 136 128 122 111 100 93 86 73
198 197 195 192 188 191 187 183 187 187 185 187 186 187 180 170 162 155 152 161 141 153 188 183 161 186 173 166 172 155 164 164 156 152 149 146 137 132 121 113 103 94 82
190 188 187 192 190 186 184 187 186 190 186 188 184 182 178 174 164 158 158 154 93 130 155 148 147 161 161 160 164 152 163 166 172 172 157 149 147 141 132 122 114 104 93
176 181 174 182 191 193 185 182 186 185 188 181 178 175 170 165 160 146 146 141 128 103 124 91 102 146 149 159 159 155 162 164 172 176 166 154 150 146 138 127 118 105 94
169 178 181 181 186 191 195 185 183 183 182 177 170 171 163 160 154 155 152 158 160 137 140 156 148 156 165 170 152 155 160 169 175 175 167 160 154 147 143 134 121 114 110
177 179 182 182 180 178 194 194 180 177 180 177 178 171 168 160 162 165 167 169 166 155 157 152 143 165 150 157 146 149 155 150 174 180 171 162 157 151 151 143 133 131 124
180 181 179 179 180 175 180 185 172 172 169 169 171 172 172 175 176 172 170 170 164 157 148 143 144 157 155 163 155 154 152 162 179 172 167 165 162 163 156 156 144 142 136
185 179 173 166 162 162 170 169 166 166 166 164 172 176 180 185 178 175 167 167 165 162 158 149 149 159 160 165 175 164 160 162 172 172 166 171 170 167 168 164 156 155 148
144 160 172 158 162 164 164 156 158 161 162 161 161 163 167 172 177 176 176 174 172 167 163 160 166 173 179 174 163 164 158 162 180 192 165 170 173 175 170 174 171 166 164
147 148 154 147 161 158 155 150 148 150 150 153 151 152 153 164 166 170 166 171 180 175 167 171 175 180 175 173 158 165 174 182 160 159 158 178 183 188 184 186 182 174 169
88 77 102 114 142 145 146 146 134 137 134 139 150 156 158 156 160 152 149 157 164 167 169 177 177 174 176 168 173 176 174 147 90 163 172 178 173 190 190 193 193 185 181
115 119 107 99 91 118 119 122 114 121 122 128 137 145 150 156 158 154 153 158 153 149 155 166 169 170 167 171 159 145 164 159 149 183 203 120 171 150 186 204 205 195 192
97 104 100 105 97 107 128 123 113 116 115 124 126 138 142 151 160 159 158 157 164 162 149 135 139 155 161 169 164 173 168 175 153 136 192 164 144 150 181 200 200 204 202